Ellsworth AFB, SD

11:28 PM MST on February 22, 2017 (GMT -0700)
Ellsworth Air Force Base

Weather History for KRCA - November, 2011

Change the Weather History Date:

Tuesday, November 15, 2011

  Actual Average Record
Temperature  
Mean Temperature 28 °F -  
Max Temperature 35 °F 45 °F 71 °F (1999)
Min Temperature 21 °F 24 °F -6 °F (2014)
Degree Days  
Heating Degree Days 37    
Moisture  
Dew Point 15 °F    
Average Humidity 57    
Maximum Humidity 87    
Minimum Humidity 28    
Precipitation  
Precipitation 0.00 in - - ()
Sea Level Pressure  
Sea Level Pressure 29.92 in    
Wind  
Wind Speed 15 mph (NW)    
Max Wind Speed 26 mph    
Max Gust Speed 38 mph    
Visibility 9 miles    
Events Snow    
Averages and records for this station are not official NWS values.
T = Trace of Precipitation, MM = Missing Value Source: NWS Daily Summary

Daily Weather History Graph

Daily Weather History Graph

Search for Another Location

Airport or City:

Trip Planner

Search our weather history database for the weather conditions in past years. The results will help you decide how hot, cold, wet, or windy it might be!

Date:

Astronomy

Nov. 15, 2011 Rise Set
Actual Time 6:47 AM MST 4:25 PM MST
Civil Twilight 6:16 AM MST 4:57 PM MST
Nautical Twilight 5:41 AM MST 5:32 PM MST
Astronomical Twilight 5:07 AM MST 6:06 PM MST
Moon 8:36 PM MST (11/15) 10:49 AM MST (11/15)
Length of Visible Light 10h 40m
Length of Day
9h 38m
Waning Gibbous, 78% of the Moon is Illuminated
Nov 15
Waning Gibbous
Nov 18
Last Quarter
Nov 24
New
Dec 2
First Quarter
Dec 10
Full

Hourly Weather History & Observations

Time (MST) Temp. Windchill Dew Point Humidity Pressure Visibility Wind Dir Wind Speed Gust Speed Precip Events Conditions
12:55 AM 31.3 °F 21.1 °F 19.8 °F 62% 29.64 in 10.0 mi WNW 13.8 mph - N/A   Partly Cloudy
1:55 AM 30.9 °F 23.5 °F 20.1 °F 64% 29.66 in 10.0 mi WNW 8.1 mph - N/A   Clear
2:55 AM 33.1 °F 25.5 °F 21.9 °F 64% 29.68 in 10.0 mi NW 9.2 mph - N/A   Mostly Cloudy
3:44 AM 35.6 °F 24.5 °F 24.8 °F 65% 29.69 in 7.0 mi NNW 20.7 mph - N/A Snow Light Snow
3:49 AM 33.8 °F 21.9 °F 26.6 °F 75% 29.71 in 3.0 mi NNW 21.9 mph 26.5 mph N/A Snow Light Snow
3:55 AM 33.1 °F 20.3 °F 28.4 °F 83% 29.72 in 3.0 mi NNW 24.2 mph 32.2 mph N/A Snow Light Snow
4:06 AM 32.0 °F 20.5 °F 28.4 °F 87% 29.74 in 7.0 mi NNW 18.4 mph 38.0 mph N/A   Overcast
4:19 AM 30.2 °F 18.5 °F 26.6 °F 86% 29.75 in 10.0 mi NW 17.3 mph 24.2 mph N/A   Light Freezing Rain
4:55 AM 29.3 °F 19.6 °F 20.5 °F 70% 29.77 in 10.0 mi WNW 11.5 mph - N/A   Partly Cloudy
5:55 AM 28.4 °F 18.5 °F 20.3 °F 72% 29.80 in 10.0 mi NNW 11.5 mph - N/A   Overcast
6:55 AM 27.5 °F 16.3 °F 21.7 °F 79% 29.85 in 10.0 mi NNW 13.8 mph - N/A   Scattered Clouds
7:55 AM 28.0 °F 15.7 °F 20.8 °F 74% 29.90 in 10.0 mi NNW 17.3 mph - N/A   Partly Cloudy
7:56 AM 28.4 °F 16.6 °F 21.2 °F 74% 30.10 in 10.0 mi NNW 16.1 mph - N/A   Partly Cloudy
8:55 AM 30.0 °F 16.6 °F 19.0 °F 64% 29.94 in 10.0 mi NNW 23.0 mph 32.2 mph N/A   Clear
9:55 AM 32.2 °F 18.6 °F 12.7 °F 45% 29.94 in 10.0 mi NNW 26.5 mph 32.2 mph N/A   Clear
10:55 AM 33.3 °F 21.8 °F 10.6 °F 39% 29.99 in 10.0 mi NNW 19.6 mph 24.2 mph N/A   Clear
11:55 AM 34.0 °F 22.4 °F 9.7 °F 36% 29.98 in 10.0 mi NNW 20.7 mph 27.6 mph N/A   Clear
12:55 PM 34.0 °F 22.1 °F 4.6 °F 29% 29.98 in 10.0 mi NNW 21.9 mph 29.9 mph N/A   Scattered Clouds
1:55 PM 34.0 °F 22.7 °F 4.3 °F 29% 29.99 in 10.0 mi NNW 19.6 mph 25.3 mph N/A   Overcast
2:55 PM 34.0 °F 24.2 °F 5.0 °F 30% 29.99 in 10.0 mi NW 15.0 mph - N/A   Mostly Cloudy
3:55 PM 32.4 °F 23.0 °F 2.1 °F 28% 30.01 in 10.0 mi NW 12.7 mph - N/A   Partly Cloudy
4:55 PM 29.1 °F 24.1 °F 5.2 °F 36% 30.04 in 10.0 mi NNW 4.6 mph - N/A   Partly Cloudy
5:55 PM 27.1 °F 18.2 °F 6.1 °F 41% 30.07 in 10.0 mi NNW 9.2 mph - N/A   Partly Cloudy
6:55 PM 25.0 °F 15.5 °F 7.0 °F 46% 30.09 in 10.0 mi NW 9.2 mph - N/A   Partly Cloudy
7:55 PM 23.5 °F 13.7 °F 7.5 °F 50% 30.11 in 10.0 mi NW 9.2 mph - N/A   Partly Cloudy
8:55 PM 21.4 °F 11.9 °F 6.6 °F 53% 30.14 in 10.0 mi WNW 8.1 mph - N/A   Partly Cloudy
9:55 PM 21.4 °F 12.8 °F 7.2 °F 54% 30.14 in 10.0 mi West 6.9 mph - N/A   Scattered Clouds
10:55 PM 23.0 °F 15.8 °F 7.2 °F 51% 30.14 in 10.0 mi West 5.8 mph - N/A   Scattered Clouds
11:55 PM 21.0 °F 13.4 °F 7.2 °F 55% 30.16 in 10.0 mi West 5.8 mph - N/A   Clear